Regional Weather Roundup
Issued by NWS

Home | Current Version | Previous Version | Text Only | Print | Product List | Glossary Off
Versions: 1 2 3 4 5 6 7 8 9 10 11 12 13 14 15 16 17 18 19 20 21 22 23 24 25 26 27 28 29 30 31 32 33 34 35 36 37 38 39 40 41 42 43 44 45 46 47 48 49 50

000
ASUS43 KTOP 022108
RWRKS

WEATHER ROUNDUP FOR KANSAS
NATIONAL WEATHER SERVICE GOODLAND KS
400 PM CDT MON MAY 02 2016

NOTE:  "FAIR" INDICATES FEW OR NO CLOUDS BELOW 12,000 FEET WITH NO
SIGNIFICANT WEATHER AND/OR OBSTRUCTIONS TO VISIBILITY.

KSZ001>006-013>018-027>032-041>047-022200-
NORTHWEST KANSAS

CITY           SKY/WX    TMP DP  RH WIND       PRES   REMARKS
GOODLAND       SUNNY     62  29  28 N13       30.11F
HAYS           MOSUNNY   63  37  39 NW3       30.10F
HILL CITY      SUNNY     64  31  28 W7        30.10F
RUSSELL        SUNNY     63  39  41 NW10      30.08F
$$

KSZ061>065-074>080-084>089-022200-
SOUTHWEST KANSAS

CITY           SKY/WX    TMP DP  RH WIND       PRES   REMARKS
DODGE CITY     SUNNY     61  35  37 W8        30.13F
ELKHART          N/A     59  35  40 NW6         N/A
GARDEN CITY    SUNNY     59  32  36 VRB6      30.13F
GREAT BEND     PTSUNNY   59  37  44 NW7       30.11F
LIBERAL        SUNNY     57  36  44 NW6       30.16F
PRATT          PTSUNNY   60  37  41 NW13G21   30.11F
$$

KSZ066>073-081>083-090>101-022200-
SOUTHEAST KANSAS

CITY           SKY/WX    TMP DP  RH WIND       PRES   REMARKS
CHANUTE        CLOUDY    56  44  64 W3        30.09F
COFFEYVILLE    CLOUDY    59  44  57 N12       30.10F
HUTCHINSON     MOSUNNY   65  37  35 NW9G18    30.10F
MEDICINE LODGE   N/A     64  38  38 N13       30.11F
NEWTON         CLOUDY    63  39  42 NW9       30.12F
PARSONS        CLOUDY    59  45  59 NW7       30.10F
WICHITA INTL   PTSUNNY   62  41  46 NW13      30.11F
WICHITA JABRA  CLOUDY    60  41  49 NW10      30.10F
WINFIELD       CLOUDY    61  43  51 N9        30.17R
$$

KSZ007>012-019>026-033>040-048>060-102>105-022200-
NORTHEAST KANSAS

CITY           SKY/WX    TMP DP  RH WIND       PRES   REMARKS
CONCORDIA      MOSUNNY   60  36  40 W5        30.09F
EMPORIA        CLOUDY    60  40  47 N14       30.08F
LAWRENCE       CLOUDY    56  46  69 CALM      30.09F
MANHATTAN      PTSUNNY   62  40  44 N9        30.09F
MARYSVILLE     PTSUNNY   61  41  48 N5        30.08F
OLATHE IND     CLOUDY    55  46  71 N5        30.09F
OLATHE EXE     CLOUDY    54  44  69 CALM      30.08F
SALINA         PTSUNNY   66  40  38 VRB6      30.10F
TOPEKA BILLARD CLOUDY    58  44  60 N7        30.09F
TOPEKA FORBES  CLOUDY    58  45  62 N7        30.09F
$$



USA.gov is the U.S. government's official web portal to all federal, state and local government web resources and services.